User: anonymous
Location: Unspecified
(0.0000°N, 0.0000°E)
Time: 20:40:39
(UTC+02:00)
Language:

H-2A R/B - Orbit

View from above orbital plane
View from above orbital plane
View from above satellite
View from above satellite

Ground track
Ground track

The orbit data is extracted from the following two-line orbital elements,

1 26899U 01038B   14107.57238090  .00001214  00000-0  64389-3 0  9578
2 26899 027.9009 170.7540 7140994 148.8811 359.5048 02.43630302108053
Epoch (UTC): 17 April 2014 13:44:13
Eccentricity: 0.7140994
inclination: 27.9009°
perigee height: 292 km
apogee height: 33611 km
right ascension of ascending node: 170.7540°
argument of perigee: 148.8811°
revolutions per day: 2.43630302
mean anomaly at epoch: 359.5048°
orbit number at epoch: 10805

The dashed part of the orbit path shows where the satellite is in the earth's shadow,  

DLR